Wind_Speed
33 33 34 34 35 35 36 36 36 36 37 39 40 41 42 43 44 45 45 46 46 47 47 48 48 49 49 50 51 52 52 53 53 54 54 55 54 54 53 53 54 55 55 55 55 55 55 55 55 55 55 55 55 55 55 55 54 53 52 51 50 49 49
32 32 32 33 33 34 34 34 34 35 36 37 38 38 39 40 42 43 44 45 46 47 47 47 48 49 49 50 50 51 52 52 53 53 54 54 55 54 54 53 53 54 54 55 55 55 55 56 56 56 56 55 55 56 55 55 55 54 53 53 52 52 51
31 32 32 33 33 33 33 34 34 35 36 37 38 38 39 40 41 43 44 45 45 46 46 47 48 48 49 49 50 51 51 52 53 53 54 54 54 54 54 53 53 54 54 54 54 54 54 55 55 56 56 56 55 55 55 55 55 55 55 54 54 54 54
31 31 32 33 33 33 34 34 35 36 37 38 39 40 41 42 43 44 44 45 46 46 47 48 48 48 47 48 49 50 50 51 52 53 54 54 54 55 54 54 54 54 54 54 54 54 54 54 55 55 56 55 55 55 55 55 55 55 55 56 56 56 56
32 32 33 33 34 34 35 36 36 37 38 39 40 41 42 43 44 45 46 47 47 47 48 48 49 48 47 47 48 48 48 48 49 50 52 53 54 54 54 55 55 55 55 55 55 55 54 54 54 55 55 55 55 55 55 54 54 54 55 55 56 57 57
33 34 35 35 36 36 37 38 38 39 40 41 42 43 43 45 46 46 47 48 49 49 49 50 49 49 48 48 48 47 46 46 46 47 48 49 50 51 52 53 54 54 55 56 56 56 56 56 55 54 54 55 55 55 55 54 54 54 54 55 56 56 57
35 36 37 37 38 39 39 40 41 42 42 43 44 45 45 46 47 48 49 50 50 51 51 51 51 50 50 50 49 48 47 47 47 47 47 48 48 49 50 51 52 53 54 55 56 57 57 57 56 55 55 54 53 53 53 53 53 53 54 55 56 57 57
37 38 39 39 40 41 42 43 44 44 45 46 47 47 48 49 49 50 50 51 51 52 53 53 53 53 53 52 51 51 50 50 50 50 50 50 50 51 51 52 52 53 54 55 56 56 57 57 57 57 55 54 53 52 51 51 52 54 55 55 56 57 58
39 40 40 41 42 43 44 45 46 47 48 48 49 49 50 50 51 51 51 52 52 53 53 54 54 54 54 54 54 53 53 53 53 53 53 52 53 53 53 53 54 55 55 56 57 57 57 57 57 56 55 54 53 52 51 52 54 55 55 56 56 57 57
42 43 43 44 44 45 46 47 48 48 49 50 50 51 51 51 51 52 52 52 53 53 53 53 53 54 54 54 54 54 54 54 54 54 54 53 53 53 53 54 54 55 56 56 57 57 57 57 56 55 54 53 53 53 53 53 54 55 55 56 56 56 55
45 45 46 47 47 47 48 48 49 50 50 51 51 51 52 52 52 52 52 53 53 53 53 53 53 53 53 53 53 53 54 54 54 55 54 54 54 54 53 53 54 54 55 55 56 56 55 55 55 54 53 53 53 53 53 54 54 55 55 54 54 54 53
46 47 47 48 49 49 49 49 50 50 51 51 51 52 52 53 53 53 53 53 53 53 53 53 53 53 54 54 54 54 55 55 56 56 55 55 55 54 54 54 54 53 53 54 54 54 54 53 53 52 52 52 52 53 53 53 53 53 53 52 53 53 52
47 48 48 49 50 50 50 50 50 51 51 52 52 52 52 53 53 54 54 54 55 55 55 55 56 56 56 56 56 56 56 57 56 56 56 56 55 55 54 54 54 53 52 53 53 53 52 51 51 51 51 51 52 52 53 52 52 51 51 52 53 52 51
49 49 50 51 51 52 51 51 51 52 52 52 52 53 53 54 55 55 56 56 57 57 57 57 58 58 58 58 58 57 57 56 55 55 54 55 55 54 53 53 52 52 51 51 50 50 50 50 50 51 51 51 51 51 51 50 50 50 51 52 52 52 52
51 51 51 51 52 53 52 52 52 53 53 53 54 54 55 55 56 57 57 58 59 59 59 59 59 59 59 59 58 57 56 54 53 52 52 52 52 52 51 50 50 50 49 49 49 49 49 50 50 51 51 51 50 49 49 49 50 50 51 52 52 52 52
53 53 52 52 53 53 53 53 54 54 55 55 55 56 56 57 57 58 58 59 59 60 59 59 59 59 58 58 57 55 53 51 50 49 49 49 49 48 48 47 48 48 48 48 48 49 49 50 50 51 50 49 48 48 48 49 50 50 51 51 52 52 52
53 53 54 54 54 54 55 54 55 56 56 56 57 57 57 58 58 58 58 58 58 58 58 57 57 56 56 55 54 53 51 49 48 47 47 47 46 46 46 46 46 47 48 48 48 48 49 49 49 48 47 47 47 47 48 49 50 50 50 52 52 52 50
54 54 55 55 55 55 56 56 56 55 55 55 56 57 57 57 57 57 57 57 56 55 55 55 54 53 53 52 51 49 48 47 47 46 45 45 44 44 45 45 46 47 47 47 48 48 48 48 47 46 46 46 47 48 49 50 50 49 50 52 52 50 49
55 54 54 54 54 55 55 55 55 54 53 53 53 54 55 56 56 56 55 55 54 53 53 53 52 52 51 50 49 48 47 47 46 45 44 44 44 45 45 45 46 47 47 47 46 46 46 46 46 46 46 47 48 48 49 50 50 49 50 50 49 49 49
54 54 54 53 53 53 53 54 53 52 52 52 52 52 53 54 55 55 54 54 53 53 53 52 52 51 51 50 49 47 46 46 47 45 44 43 44 45 45 45 46 46 45 43 43 44 45 46 46 46 47 47 47 47 48 49 49 49 49 49 48 48 49
54 54 54 53 52 52 52 52 52 52 52 52 51 51 52 53 53 53 54 53 53 53 53 52 52 51 50 49 48 47 45 45 46 45 44 44 44 44 44 44 44 43 41 41 43 45 46 46 46 46 46 46 47 48 48 49 49 49 48 48 48 48 49
54 54 54 53 52 52 51 51 51 51 51 51 50 50 50 51 51 51 52 53 53 52 52 51 50 49 48 48 48 46 45 44 44 44 44 43 43 42 42 42 41 40 41 43 45 46 46 45 46 46 46 47 47 48 48 47 47 47 47 47 47 48 50
54 54 54 53 52 51 50 49 49 50 49 48 48 48 48 48 49 49 49 50 51 51 50 49 48 47 46 46 46 45 44 42 41 42 43 42 41 40 39 39 40 41 43 44 44 45 45 46 46 47 47 47 47 46 46 45 46 46 46 47 47 48 49
53 53 53 52 51 50 49 48 48 48 47 46 46 46 46 46 46 46 47 47 47 47 47 47 46 45 45 44 44 43 42 40 39 39 39 40 40 39 38 40 42 43 43 44 44 45 46 47 47 47 47 47 46 45 45 45 45 45 46 46 47 48 49
51 51 51 51 50 49 48 47 46 45 44 44 43 43 43 44 44 44 44 44 44 44 44 44 44 44 44 43 42 40 40 39 38 37 37 38 38 39 40 42 43 43 43 44 45 46 47 47 47 47 46 45 45 44 44 44 44 45 46 47 47 48 49
46 46 47 47 47 47 46 45 44 43 42 41 41 40 40 41 42 42 42 41 41 41 42 42 42 42 42 42 41 39 39 38 38 37 37 37 38 38 40 41 41 42 42 44 44 45 45 45 45 44 44 44 44 44 44 44 44 45 46 46 46 47 47
43 43 43 43 44 44 43 42 41 40 39 39 39 38 37 38 39 40 40 40 39 39 40 40 40 40 41 41 40 39 39 38 38 37 37 36 36 36 37 38 39 39 41 42 42 43 43 43 43 44 44 44 45 44 44 44 44 44 44 44 44 44 45
41 40 40 41 42 41 40 39 38 37 37 37 37 36 35 35 36 37 38 38 38 38 38 38 38 39 39 40 40 39 39 38 38 37 37 36 36 36 36 37 38 40 41 42 42 42 43 43 44 44 44 45 45 43 42 41 41 40 40 40 40 41 41
40 39 39 39 39 38 38 38 37 35 35 35 35 35 35 34 34 34 35 36 36 36 36 36 36 37 37 38 39 39 39 38 38 37 37 37 37 38 38 39 40 41 42 42 42 43 43 43 44 44 44 44 42 41 39 38 38 38 37 37 37 37 37
39 38 38 38 37 36 37 38 36 34 33 33 34 34 34 33 33 32 33 34 34 34 34 34 34 34 35 36 37 38 38 38 37 37 37 38 38 39 39 40 41 41 41 41 41 41 41 42 42 41 41 40 39 38 37 37 37 37 36 36 35 34 34
37 37 37 37 37 37 36 36 35 34 34 34 34 33 33 33 33 32 32 32 32 32 32 32 32 32 33 34 35 36 36 36 37 37 37 38 38 39 39 39 39 39 39 39 39 39 39 39 39 39 38 38 37 36 36 37 37 36 36 34 33 32 32
36 36 36 37 37 37 36 35 34 34 35 35 33 32 32 33 32 32 31 31 31 31 30 30 30 31 31 32 33 34 34 35 35 36 36 37 37 38 38 38 38 37 38 38 38 38 38 37 37 37 36 35 35 35 36 36 36 35 34 33 32 31 30
36 36 36 37 37 37 36 36 36 35 35 34 33 33 33 33 32 32 32 32 32 31 30 29 30 30 30 31 32 33 33 34 34 35 36 36 36 37 37 37 37 37 38 37 37 36 36 36 36 35 35 34 34 34 34 34 34 33 32 31 30 29 28
35 36 37 36 36 36 37 37 36 35 35 34 34 34 34 34 33 32 32 33 34 33 32 31 31 30 30 30 31 32 33 34 34 35 35 36 36 36 36 37 37 37 37 36 36 35 35 35 34 34 33 33 32 33 33 33 32 31 30 29 28 27 27
32 34 35 36 36 36 36 36 36 35 35 34 34 34 35 34 34 34 33 33 34 35 34 33 32 31 31 31 32 33 33 34 34 35 35 36 36 36 36 37 37 37 36 35 35 34 34 34 33 33 32 32 31 31 31 31 30 29 28 27 27 27 27
30 32 33 34 35 35 35 35 35 35 34 34 34 34 34 34 34 35 34 34 35 35 35 34 34 33 33 33 33 33 34 35 35 36 36 36 37 37 36 36 36 36 35 34 34 34 33 33 32 32 31 31 30 30 30 29 28 27 26 26 26 27 27
Wind_Direction
248 247 248 247 248 248 249 249 250 250 251 252 253 254 255 257 258 259 261 261 261 261 261 261 261 261 261 261 261 262 262 263 263 264 264 263 263 263 262 262 263 264 264 265 265 266 267 267 267 268 269 270 271 272 273 274 275 275 276 277 277 278 279
251 251 251 251 251 252 252 253 254 254 255 255 256 256 257 258 258 259 260 261 262 262 262 263 263 263 262 262 262 262 262 262 263 263 263 263 264 264 263 263 263 263 263 263 264 264 265 266 267 268 269 269 270 271 272 273 274 276 276 277 278 278 279
256 255 255 255 255 256 257 257 258 259 259 260 260 261 261 261 261 262 262 262 263 264 264 264 264 264 263 262 263 263 262 262 262 262 263 263 263 263 263 263 263 263 263 263 263 262 263 264 265 267 268 268 269 270 271 273 274 275 277 278 279 280 280
262 261 261 261 261 261 261 262 262 262 263 263 263 264 265 265 266 266 266 266 267 266 266 266 266 266 265 264 263 263 262 262 262 262 262 262 263 263 263 262 262 262 262 262 262 262 261 262 263 264 266 267 268 269 270 271 273 275 276 278 279 280 281
265 265 265 265 266 265 265 266 266 266 266 266 267 267 267 268 269 269 269 270 269 269 269 268 268 268 266 265 265 264 264 263 262 262 262 262 262 262 262 262 262 262 262 262 262 262 261 261 261 262 264 265 267 268 269 271 272 273 275 277 278 279 280
266 268 269 269 270 270 270 270 270 270 270 270 270 270 270 270 270 270 270 270 270 270 270 269 269 269 268 267 267 266 266 265 264 264 263 263 263 262 262 262 262 262 262 263 263 262 261 261 261 261 262 264 266 267 269 270 272 273 275 276 276 277 278
269 270 271 273 273 274 274 274 273 273 273 272 272 272 271 271 271 270 270 270 270 269 269 269 269 268 268 268 268 268 267 267 266 265 265 265 264 264 263 263 264 263 263 263 263 263 262 262 262 262 263 264 265 266 268 269 271 272 273 273 274 275 275
271 272 273 274 275 275 275 275 275 274 274 273 273 272 272 271 270 270 269 269 269 268 268 268 268 268 268 268 268 268 268 268 267 266 266 266 265 265 265 265 265 264 264 264 264 264 264 264 264 264 265 265 265 266 267 268 268 269 269 270 272 273 273
272 272 273 273 274 275 275 274 274 274 274 273 273 272 272 271 270 269 269 269 268 267 267 267 267 267 268 268 268 268 268 268 267 267 267 266 266 266 266 265 265 265 265 265 264 265 265 265 266 266 266 266 266 267 267 267 268 268 269 270 270 271 273
275 275 275 274 274 275 274 274 274 274 273 273 272 271 271 270 270 270 269 269 268 268 267 267 267 267 267 267 267 267 268 268 268 268 267 267 267 266 266 266 266 266 265 265 265 265 265 266 266 266 266 266 266 267 267 268 269 269 270 271 271 272 273
276 276 276 276 275 275 274 273 273 272 272 271 271 271 270 270 270 270 269 269 269 268 268 268 268 268 267 268 268 268 268 268 268 268 268 268 268 267 267 266 266 266 266 265 265 265 265 266 266 266 265 265 266 266 267 268 268 270 271 272 273 273 274
275 275 275 275 274 273 272 272 271 270 270 270 270 270 270 270 270 269 269 269 270 270 269 269 269 269 269 269 269 269 269 269 269 269 269 269 269 268 267 267 266 265 265 265 265 265 265 266 266 265 264 264 265 265 266 267 268 270 271 272 272 273 273
274 274 273 273 272 272 271 270 269 269 268 268 268 268 269 269 269 269 269 269 270 270 271 271 271 271 271 271 271 270 270 270 270 270 269 269 269 268 267 267 266 265 265 265 265 265 266 266 265 264 264 264 264 264 266 267 269 270 271 271 272 272 272
274 273 272 272 271 270 269 268 268 268 267 267 267 268 268 269 269 270 270 271 271 271 272 272 272 272 272 272 271 271 270 270 270 269 269 268 268 267 266 266 266 265 265 264 264 265 265 264 263 262 262 263 263 265 266 268 269 269 270 270 271 271 271
275 273 272 271 270 270 269 268 268 268 268 268 269 269 270 270 271 271 271 272 272 273 273 273 273 273 273 272 272 271 271 270 269 268 267 267 266 266 265 265 264 264 264 264 263 263 262 262 262 262 262 262 264 265 267 268 269 269 270 270 271 272 273
275 274 272 271 271 270 270 270 270 271 271 271 271 272 272 272 272 272 272 272 273 273 273 273 273 272 272 272 272 271 270 269 268 267 266 265 265 264 263 263 263 262 262 261 261 261 261 261 262 262 262 263 265 266 267 268 269 269 270 272 272 273 274
275 275 274 273 273 272 272 272 272 273 273 273 273 273 273 272 272 272 272 272 272 272 272 272 272 272 272 271 271 270 270 268 267 266 265 264 263 262 261 260 260 260 260 260 260 261 261 262 262 263 263 264 265 266 267 268 269 271 273 273 273 273 274
275 275 276 276 275 275 274 274 273 274 274 274 274 273 273 272 272 271 271 271 271 271 271 271 271 271 271 270 270 269 268 267 266 265 264 262 261 260 259 259 259 259 260 261 261 261 261 262 262 263 264 264 265 266 267 268 269 271 272 273 274 274 274
277 277 277 277 276 276 276 275 274 274 273 273 272 272 272 272 271 271 271 270 270 270 269 269 269 269 269 269 269 268 267 266 266 265 263 262 260 259 259 259 259 259 259 260 260 261 261 261 261 262 263 264 266 268 270 271 272 272 273 273 273 273 272
278 278 277 276 276 276 276 275 275 274 273 272 271 271 271 271 271 271 270 270 269 269 268 268 268 268 268 268 268 267 266 265 265 264 262 260 259 259 260 260 259 258 258 258 258 258 258 259 261 262 264 266 268 271 273 275 276 276 275 274 273 272 271
279 278 277 277 276 276 275 275 275 274 273 272 272 271 270 270 270 271 270 270 269 268 268 268 267 267 267 267 267 266 264 263 263 263 260 259 259 260 259 258 256 255 254 254 254 255 257 259 261 263 265 268 270 272 274 275 276 275 275 274 273 273 273
279 279 278 277 277 276 275 275 274 273 273 273 272 271 270 270 270 270 269 269 269 268 268 267 267 267 266 265 265 264 262 261 261 261 259 258 258 257 256 254 253 252 251 251 253 256 258 261 263 265 267 268 270 272 273 273 273 272 272 272 273 274 275
280 279 279 278 277 276 276 275 274 273 273 272 272 271 270 269 269 268 268 268 268 268 268 267 267 265 264 263 262 261 260 259 258 258 258 257 256 254 252 250 249 249 251 253 255 258 261 263 264 266 267 268 269 269 269 269 269 270 272 273 274 275 276
280 279 279 278 277 277 276 275 274 273 273 272 271 271 270 270 269 268 267 267 267 268 268 267 266 265 263 261 260 259 258 256 254 254 255 255 253 252 250 249 250 251 254 256 258 260 261 263 264 266 266 267 267 267 267 268 270 271 273 274 275 275 276
279 279 278 278 277 276 275 274 273 273 272 271 270 270 270 269 269 268 267 267 267 266 266 265 265 264 262 261 259 258 257 254 252 252 253 253 252 252 252 254 255 256 257 258 259 260 261 263 264 266 266 267 268 269 270 271 272 273 273 273 274 274 274
280 279 279 278 277 276 276 275 274 274 273 271 269 268 267 268 268 268 267 266 265 264 263 262 262 261 261 260 258 256 255 254 252 252 254 256 257 257 258 259 261 262 262 262 263 264 265 266 268 269 269 270 271 272 273 273 273 273 273 273 272 272 272
281 280 280 279 278 277 277 277 277 275 274 272 270 268 266 266 266 266 266 265 264 263 262 261 260 259 258 257 256 254 252 252 252 252 254 255 257 258 259 261 262 263 264 265 266 268 269 270 270 271 271 272 272 273 273 273 273 272 272 271 270 270 269
280 280 279 278 278 279 278 277 275 274 273 272 271 269 266 264 264 265 265 265 264 263 262 260 259 258 257 255 254 253 251 250 250 250 250 251 251 253 254 255 257 259 261 264 266 267 269 270 271 271 272 272 272 273 273 272 271 270 269 268 268 268 268
281 280 279 279 279 279 277 275 273 272 272 272 271 270 268 265 264 263 264 264 264 263 262 261 260 258 257 256 254 253 252 251 251 251 251 251 252 252 253 254 255 257 259 262 264 266 268 269 270 271 272 272 273 273 272 271 270 269 268 267 266 266 266
281 281 281 279 278 276 276 275 275 274 272 270 269 269 269 268 265 263 263 263 264 263 262 262 261 259 258 257 256 255 254 253 253 253 253 254 255 255 256 257 258 260 261 263 265 266 267 268 269 269 270 271 272 272 272 270 269 268 267 267 267 266 265
280 280 280 279 278 277 276 276 277 275 272 269 268 269 270 269 268 266 264 264 264 263 262 261 260 259 258 257 256 256 255 255 256 256 256 257 257 258 259 261 262 263 264 265 266 267 267 268 268 269 269 270 270 269 269 268 267 267 268 267 267 266 264
277 277 277 277 278 278 277 276 274 273 272 272 272 271 270 269 269 268 267 265 264 263 263 261 259 258 258 257 257 257 257 257 257 258 258 259 259 260 261 262 263 264 265 266 267 268 268 269 269 269 268 268 267 266 266 266 266 267 267 267 266 265 263
277 275 275 275 275 276 276 275 274 273 273 273 272 270 269 268 268 268 267 266 264 262 262 260 258 257 256 256 256 257 257 257 257 258 259 259 260 261 262 263 264 265 266 267 268 268 268 268 268 267 267 266 265 264 264 265 265 266 265 265 265 264 262
275 276 275 274 274 274 274 274 274 274 273 272 270 269 268 268 267 266 265 265 265 263 260 259 258 257 256 256 256 256 256 256 257 258 259 260 260 261 262 263 265 266 266 267 268 268 267 267 267 266 265 264 263 263 263 263 264 264 264 263 263 262 261
271 273 274 275 274 273 273 273 273 273 272 272 270 269 268 268 267 265 264 263 264 264 262 260 259 258 257 256 256 256 257 257 257 258 259 259 260 261 261 263 264 265 266 266 266 266 266 266 266 266 265 264 263 262 262 262 262 261 261 260 260 260 260
273 271 272 273 274 273 272 272 272 271 270 270 269 268 268 267 266 266 265 264 264 264 263 262 260 259 258 257 257 257 258 258 258 259 260 260 261 261 262 262 263 264 265 265 265 265 265 265 264 264 263 262 261 260 260 260 259 258 257 257 257 258 260
Height
2980 2981 2981 2982 2982 2982 2983 2983 2983 2984 2984 2983 2983 2983 2984 2984 2983 2983 2983 2984 2984 2984 2984 2985 2985 2986 2987 2986 2986 2986 2986 2986 2986 2985 2985 2985 2986 2986 2987 2987 2986 2986 2987 2987 2986 2986 2986 2986 2986 2985 2985 2985 2985 2985 2985 2985 2985 2985 2985 2985 2986 2986 2986
2975 2976 2976 2977 2977 2977 2978 2978 2979 2979 2979 2978 2979 2979 2979 2979 2978 2978 2978 2978 2978 2978 2978 2978 2979 2979 2980 2980 2979 2980 2979 2979 2979 2978 2978 2978 2978 2979 2979 2979 2979 2979 2980 2980 2979 2979 2979 2978 2978 2978 2978 2978 2978 2977 2977 2977 2977 2977 2977 2977 2977 2978 2978
2970 2971 2971 2971 2972 2972 2973 2973 2973 2973 2973 2973 2973 2973 2973 2973 2973 2973 2973 2972 2973 2973 2972 2972 2972 2973 2973 2973 2972 2973 2972 2972 2972 2972 2971 2971 2971 2971 2972 2972 2971 2971 2972 2972 2972 2972 2972 2971 2971 2970 2970 2971 2971 2970 2970 2970 2970 2969 2969 2969 2969 2969 2968
2965 2965 2966 2966 2966 2967 2967 2967 2967 2967 2967 2968 2967 2967 2967 2967 2967 2967 2966 2966 2967 2966 2966 2965 2965 2966 2966 2966 2965 2966 2965 2965 2965 2965 2965 2965 2965 2964 2964 2964 2964 2964 2964 2964 2964 2964 2965 2964 2964 2963 2963 2963 2964 2963 2963 2963 2962 2962 2961 2961 2960 2960 2959
2960 2960 2960 2960 2960 2961 2961 2961 2961 2961 2961 2961 2961 2961 2961 2961 2960 2960 2960 2960 2960 2959 2959 2958 2959 2959 2959 2958 2958 2958 2958 2958 2958 2958 2958 2958 2957 2957 2957 2957 2957 2957 2956 2956 2956 2957 2957 2957 2957 2956 2956 2956 2956 2956 2956 2956 2956 2955 2955 2954 2953 2952 2951
2955 2954 2954 2954 2954 2954 2955 2955 2955 2955 2955 2955 2954 2954 2954 2954 2954 2954 2953 2953 2953 2952 2952 2952 2952 2952 2952 2951 2951 2952 2952 2952 2952 2951 2951 2951 2950 2950 2950 2949 2949 2949 2949 2948 2949 2949 2949 2949 2949 2950 2949 2949 2949 2949 2949 2949 2949 2949 2949 2948 2947 2946 2945
2950 2950 2949 2948 2948 2948 2948 2948 2948 2947 2947 2947 2947 2947 2947 2947 2947 2947 2947 2946 2946 2946 2945 2945 2945 2945 2944 2944 2944 2945 2945 2945 2945 2944 2944 2944 2944 2943 2942 2942 2942 2942 2941 2941 2941 2940 2940 2941 2941 2942 2942 2942 2942 2942 2942 2942 2942 2942 2942 2940 2939 2939 2939
2945 2945 2944 2943 2942 2942 2941 2941 2940 2940 2940 2940 2939 2939 2939 2939 2939 2939 2939 2939 2939 2939 2938 2938 2938 2938 2937 2937 2938 2938 2938 2937 2937 2937 2936 2937 2936 2936 2935 2935 2935 2934 2934 2933 2933 2933 2933 2933 2933 2934 2934 2934 2934 2935 2936 2936 2935 2935 2935 2934 2933 2933 2932
2940 2939 2938 2938 2937 2936 2935 2934 2934 2933 2932 2932 2931 2931 2931 2931 2931 2931 2931 2931 2931 2931 2931 2931 2930 2930 2930 2930 2930 2930 2930 2929 2929 2929 2929 2929 2929 2928 2928 2927 2927 2927 2926 2926 2925 2925 2925 2925 2925 2926 2926 2926 2927 2927 2928 2928 2926 2926 2927 2927 2926 2926 2925
2932 2932 2932 2931 2930 2929 2928 2927 2927 2926 2925 2924 2924 2923 2923 2922 2923 2923 2923 2923 2923 2922 2922 2923 2923 2923 2923 2922 2922 2922 2922 2921 2921 2920 2921 2920 2920 2920 2920 2919 2919 2919 2918 2918 2917 2917 2917 2917 2918 2919 2919 2919 2919 2919 2919 2919 2918 2918 2919 2918 2917 2918 2918
2925 2924 2924 2923 2923 2922 2922 2921 2920 2918 2918 2917 2916 2915 2914 2914 2914 2914 2914 2914 2914 2914 2914 2914 2914 2915 2914 2914 2914 2914 2913 2913 2912 2912 2912 2912 2912 2912 2912 2911 2910 2910 2910 2909 2909 2909 2910 2909 2910 2911 2911 2911 2911 2911 2911 2910 2910 2909 2910 2910 2910 2910 2910
2918 2918 2917 2916 2916 2915 2914 2914 2912 2911 2911 2910 2909 2908 2907 2906 2906 2906 2906 2906 2905 2906 2906 2906 2906 2906 2906 2906 2906 2906 2905 2905 2904 2903 2903 2903 2903 2903 2903 2902 2902 2902 2901 2901 2901 2901 2902 2902 2903 2904 2903 2903 2903 2902 2902 2902 2902 2902 2902 2902 2902 2902 2903
2911 2910 2910 2909 2908 2907 2907 2906 2905 2904 2903 2902 2901 2900 2899 2899 2898 2898 2898 2898 2898 2897 2897 2897 2897 2897 2897 2898 2897 2897 2896 2896 2895 2895 2894 2894 2894 2894 2893 2893 2893 2893 2893 2893 2893 2893 2894 2895 2896 2896 2896 2896 2894 2894 2894 2894 2895 2895 2895 2895 2894 2895 2896
2904 2903 2902 2901 2900 2900 2899 2899 2897 2896 2896 2895 2894 2893 2892 2892 2891 2890 2890 2890 2889 2889 2889 2889 2888 2888 2888 2888 2888 2888 2887 2887 2887 2886 2886 2885 2885 2885 2885 2884 2885 2885 2885 2885 2886 2886 2887 2888 2888 2887 2887 2887 2886 2886 2887 2887 2888 2888 2887 2887 2887 2888 2888
2895 2895 2894 2893 2892 2891 2891 2891 2889 2888 2888 2887 2886 2885 2884 2883 2883 2882 2882 2881 2881 2880 2880 2880 2879 2878 2878 2878 2878 2878 2878 2878 2878 2877 2877 2876 2876 2876 2876 2876 2876 2877 2877 2878 2878 2879 2880 2880 2879 2878 2879 2879 2879 2880 2881 2880 2880 2880 2880 2880 2880 2881 2881
2887 2886 2886 2885 2884 2883 2883 2883 2881 2879 2879 2878 2877 2876 2875 2874 2874 2873 2873 2873 2872 2871 2871 2871 2870 2870 2869 2869 2869 2869 2869 2869 2869 2868 2868 2868 2868 2868 2868 2868 2869 2869 2870 2870 2870 2871 2872 2872 2871 2870 2871 2872 2872 2873 2874 2872 2872 2873 2873 2873 2873 2873 2874
2879 2878 2876 2876 2876 2874 2874 2874 2873 2870 2870 2869 2867 2866 2866 2865 2865 2864 2864 2864 2864 2863 2862 2862 2861 2861 2861 2860 2860 2861 2861 2860 2860 2860 2860 2860 2860 2860 2860 2861 2862 2862 2862 2863 2863 2864 2864 2864 2863 2863 2864 2865 2865 2866 2866 2865 2865 2867 2866 2865 2865 2866 2866
2871 2870 2868 2867 2866 2865 2864 2865 2864 2862 2861 2860 2858 2857 2856 2856 2855 2855 2855 2855 2855 2855 2854 2854 2853 2852 2852 2852 2852 2853 2853 2852 2852 2852 2852 2852 2852 2852 2853 2854 2855 2855 2856 2856 2856 2856 2856 2856 2857 2857 2858 2858 2858 2859 2859 2858 2859 2861 2859 2857 2858 2858 2858
2861 2861 2860 2858 2857 2856 2855 2854 2854 2853 2852 2851 2850 2848 2847 2846 2846 2846 2847 2847 2847 2847 2846 2846 2845 2845 2844 2844 2844 2845 2845 2844 2844 2844 2844 2845 2845 2844 2845 2847 2848 2849 2849 2849 2848 2849 2849 2849 2850 2851 2852 2852 2852 2852 2851 2850 2852 2853 2851 2850 2851 2851 2850
2851 2851 2851 2849 2848 2847 2846 2845 2845 2844 2843 2842 2841 2840 2838 2837 2837 2837 2837 2838 2838 2838 2838 2838 2837 2837 2837 2837 2837 2838 2838 2836 2836 2837 2837 2837 2837 2838 2839 2841 2841 2842 2842 2842 2841 2842 2842 2842 2844 2845 2845 2846 2846 2845 2845 2844 2844 2844 2843 2843 2843 2843 2842
2842 2841 2841 2840 2839 2838 2837 2836 2835 2835 2834 2833 2832 2831 2830 2829 2829 2828 2828 2828 2829 2829 2829 2829 2830 2830 2830 2829 2829 2830 2830 2829 2828 2829 2830 2830 2830 2832 2833 2833 2834 2834 2834 2834 2834 2834 2835 2836 2838 2838 2839 2839 2839 2839 2838 2837 2837 2836 2836 2835 2835 2835 2834
2833 2832 2831 2831 2830 2829 2829 2828 2827 2826 2825 2824 2823 2823 2822 2821 2821 2821 2819 2819 2820 2820 2821 2821 2822 2823 2823 2822 2822 2823 2823 2823 2822 2821 2822 2823 2824 2825 2825 2825 2826 2827 2827 2827 2828 2828 2829 2831 2832 2832 2833 2833 2833 2833 2832 2831 2830 2829 2829 2828 2828 2828 2826
2823 2822 2822 2822 2821 2820 2820 2819 2818 2817 2817 2816 2814 2814 2813 2813 2813 2812 2811 2810 2811 2812 2813 2813 2814 2815 2815 2814 2814 2815 2815 2816 2816 2814 2814 2817 2818 2818 2818 2818 2819 2819 2819 2821 2822 2823 2824 2825 2825 2826 2826 2827 2827 2826 2825 2824 2823 2823 2822 2822 2822 2821 2820
2814 2813 2812 2812 2812 2811 2811 2810 2809 2809 2809 2808 2806 2806 2805 2804 2804 2804 2804 2803 2804 2804 2805 2805 2805 2806 2807 2806 2807 2808 2808 2809 2810 2808 2808 2809 2811 2811 2811 2811 2812 2813 2814 2815 2817 2817 2818 2819 2819 2819 2819 2820 2820 2819 2819 2818 2818 2817 2817 2816 2815 2814 2813
2805 2804 2804 2803 2802 2802 2802 2802 2801 2801 2801 2800 2799 2799 2797 2796 2796 2796 2796 2796 2797 2797 2797 2797 2797 2798 2798 2799 2800 2801 2801 2802 2803 2802 2801 2803 2804 2805 2805 2805 2806 2808 2809 2810 2810 2811 2811 2812 2812 2812 2812 2812 2812 2812 2812 2812 2811 2811 2810 2809 2809 2808 2806
2797 2796 2795 2795 2794 2793 2793 2794 2793 2793 2793 2792 2792 2792 2791 2789 2789 2789 2789 2789 2789 2789 2789 2790 2791 2791 2791 2792 2793 2794 2794 2795 2796 2796 2796 2797 2798 2799 2799 2799 2800 2801 2802 2802 2803 2803 2803 2804 2804 2804 2805 2805 2804 2805 2805 2805 2804 2803 2803 2802 2802 2801 2800
2790 2789 2788 2787 2786 2785 2786 2786 2786 2786 2785 2785 2784 2785 2784 2783 2782 2782 2782 2782 2782 2782 2783 2783 2784 2785 2785 2785 2786 2787 2788 2789 2790 2791 2792 2793 2793 2794 2794 2794 2794 2794 2794 2795 2796 2796 2797 2797 2797 2797 2798 2798 2798 2798 2799 2798 2797 2797 2796 2796 2795 2794 2793
2782 2782 2781 2779 2779 2779 2779 2779 2779 2778 2777 2777 2777 2777 2778 2777 2776 2776 2775 2776 2776 2776 2776 2777 2778 2778 2779 2779 2780 2781 2782 2783 2784 2785 2786 2787 2788 2788 2789 2789 2789 2789 2789 2790 2790 2791 2791 2790 2790 2790 2791 2790 2790 2791 2792 2791 2790 2790 2790 2789 2788 2788 2788
2775 2775 2774 2773 2773 2772 2772 2772 2772 2772 2771 2771 2770 2770 2770 2771 2771 2770 2770 2769 2770 2770 2770 2771 2772 2772 2773 2773 2774 2775 2776 2777 2778 2779 2780 2781 2782 2782 2783 2783 2783 2784 2784 2785 2785 2785 2784 2784 2783 2783 2783 2783 2783 2784 2784 2784 2783 2783 2783 2783 2783 2783 2783
2769 2768 2767 2767 2767 2766 2765 2764 2765 2766 2766 2765 2764 2764 2764 2764 2765 2765 2764 2764 2764 2765 2765 2765 2766 2767 2767 2768 2768 2769 2770 2771 2772 2772 2774 2774 2775 2775 2776 2776 2777 2777 2778 2778 2778 2778 2778 2778 2777 2777 2777 2777 2778 2778 2778 2777 2777 2777 2777 2777 2777 2778 2778
2764 2762 2761 2760 2759 2759 2759 2759 2759 2759 2758 2758 2758 2759 2759 2758 2759 2759 2759 2759 2759 2759 2760 2760 2760 2761 2762 2762 2762 2763 2764 2765 2765 2766 2767 2767 2768 2768 2768 2769 2770 2771 2771 2771 2771 2772 2772 2772 2772 2772 2772 2772 2772 2772 2772 2771 2771 2771 2771 2772 2772 2772 2772
2759 2757 2756 2754 2753 2753 2753 2753 2753 2752 2752 2752 2753 2753 2753 2753 2753 2754 2754 2754 2754 2755 2755 2755 2756 2756 2756 2757 2757 2757 2758 2759 2759 2760 2760 2761 2761 2762 2762 2763 2764 2764 2764 2765 2765 2766 2766 2766 2766 2766 2766 2766 2766 2766 2766 2766 2766 2766 2766 2766 2767 2767 2767
2753 2752 2751 2750 2749 2748 2747 2747 2747 2746 2746 2747 2747 2747 2747 2747 2748 2748 2748 2748 2748 2750 2750 2750 2750 2751 2751 2752 2752 2752 2752 2753 2753 2754 2754 2755 2755 2756 2757 2757 2757 2758 2758 2759 2759 2760 2760 2760 2760 2760 2760 2760 2760 2760 2760 2760 2760 2761 2761 2761 2761 2762 2762
2747 2746 2745 2744 2744 2743 2742 2741 2741 2741 2741 2741 2741 2741 2741 2741 2742 2743 2743 2742 2742 2743 2745 2745 2745 2746 2746 2747 2747 2747 2747 2747 2748 2748 2748 2749 2750 2750 2751 2751 2751 2752 2753 2753 2753 2754 2754 2754 2754 2754 2754 2755 2755 2755 2755 2755 2755 2756 2756 2756 2757 2757 2757
2743 2741 2739 2738 2738 2737 2736 2736 2736 2735 2735 2735 2735 2735 2735 2735 2736 2737 2738 2737 2737 2737 2738 2739 2740 2740 2741 2741 2741 2742 2742 2742 2742 2743 2743 2743 2744 2745 2745 2746 2746 2746 2747 2748 2748 2748 2748 2748 2748 2749 2749 2749 2749 2750 2750 2750 2751 2751 2751 2752 2752 2752 2752
2738 2736 2735 2733 2732 2731 2731 2731 2730 2730 2730 2730 2729 2729 2729 2729 2730 2730 2731 2732 2731 2732 2732 2733 2734 2735 2735 2736 2736 2736 2736 2736 2737 2737 2738 2738 2738 2739 2740 2740 2741 2741 2741 2742 2742 2742 2743 2743 2743 2743 2744 2744 2744 2745 2745 2746 2746 2747 2747 2747 2747 2748 2748